Weather Roundup
Issued by NWS Chicago, IL

Home | Current Version | Previous Version | Graphics & Text | Print | Product List | Glossary On
Versions: 1 2 3 4 5 6 7 8 9 10 11 12 13 14 15 16 17 18 19 20 21 22 23 24 25 26 27 28 29 30 31 32 33 34 35 36 37 38 39 40 41 42 43 44 45 46 47 48 49 50
000
NZUS59 KLOT 032010
HRRLOT

CHICAGO AREA WEATHER ROUNDUP
NATIONAL WEATHER SERVICE CHICAGO/ROMEOVILLE IL
200 PM CST TUE MAR 03 2015

NOTE: "FAIR" INDICATES FEW OR NO CLOUDS BELOW 12,000 FEET WITH NO
SIGNIFICANT WEATHER AND/OR OBSTRUCTIONS TO VISIBILITY.

* THESE STATIONS ARE NOT UNDER NWS QUALITY CONTROL. THEY ALSO MAY NOT
  REPORT WEATHER SUCH AS PRECIPITATION OR FOG.

ILZ005-006-012>014-019>023-032100-
NORTHEAST ILLINOIS

CITY           SKY/WX    TMP DP  RH WIND       PRES   REMARKS
OHARE          DRIZZLE   33  31  92 W16       29.62F FOG     WCI  23
MIDWAY         DRIZZLE   36  33  89 W16       29.64S FOG
AURORA         CLOUDY    35  31  85 W17       29.64F FOG     WCI  25
LANSING*       CLOUDY    35  34  96 W16       29.65F FOG     WCI  25
JOLIET*        CLOUDY    34  33  93 W13G23    29.66S FOG     WCI  25
WAUKEGAN       CLOUDY    33  31  92 W9        29.59F WCI  25
DUPAGE AIRPORT CLOUDY    33  31  92 W18       29.62F FOG     WCI  22
WHEELING       CLOUDY    34  31  88 W14G22    29.63S FOG     WCI  25
KANKAKEE*      CLOUDY    36  35  96 SW20G28   29.69R FOG
MORRIS*        CLOUDY    35  34  97 W18       29.66R FOG     WCI  24
LEWIS AIRPORT* CLOUDY    34  33  98 W20       29.65R FOG     WCI  22
NORTHERLY IS     N/A     35  33  92 W14         N/A  WCI  26
$$

WIZ051-052-058>065-066-070>072-032100-
SOUTHEAST WISCONSIN

CITY           SKY/WX    TMP DP  RH WIND       PRES   REMARKS
MILWAUKEE      CLOUDY    32  27  81 W13G22    29.59S WCI  22
KENOSHA*       CLOUDY    33  30  88 W16       29.59F WCI  23
RACINE*        CLOUDY    33  28  81 W16G23    29.60F WCI  23
BURLINGTON     CLOUDY    31  28  88 W10G16    29.60S WCI  22
WAUKESHA       CLOUDY    28  27  93 SW12G18   29.59F FOG     WCI  18
WEST BEND      CLOUDY    30  27  86 W15G21    29.56F WCI  19
$$

INZ001>003-010>013-019-020-032100-
NORTHWEST INDIANA

CITY           SKY/WX    TMP DP  RH WIND       PRES   REMARKS
GARY*          CLOUDY    37  32  81 SW14G28   29.64  FOG
MICHIGAN CITY* NOT AVBL
RENSSELAER*    NOT AVBL
VALPARAISO     CLOUDY    35  34  96 SW21G26   29.64F FOG     WCI  24
$$

LMZ740>746-032100-
SOUTHERN LAKE MICHIGAN

STATION/POSITION TIME  SKY/WX   TEMP WIND        PRES    VSBY
                                AIR  DIR/SP/G
                 (UTC)          (F)  (DEG/KT/KT) (MB)    (MI)
HARRISON CRIB    2000            34  240/ 19/ 29   N/A
BURNHAM HARBOR   2000            35  270/ 11/ 17   N/A
CALUMET HARBOR   2000            35  230/ 10/ 14 1002.5R
BURNS HARBOR     NOT AVBL
MICHIGAN CITY    2000            35  200/ 19/ 23   N/A
$$

ABBREVIATIONS USED IN REMARKS
   TC - TEMPERATURE IN CELSIUS
  WCI - WIND CHILL INDEX
   HX - HEAT INDEX
  VSB - VISIBILITY
$$



USA.gov is the U.S. government's official web portal to all federal, state and local government web resources and services.